Location: Great Malvern
(52.1167°N, 2.3167°W)
Time: 11:02:14
(UTC+00:00)

Terra - Pass Details

Date: 18 September 2020
Orbit: 701 x 703 km, 98.2° (Epoch: 31 October)

Event Time Altitude Azimuth Distance (km) Brightness Sun altitude
Exits shadow 20:18:52 17° 60° (ENE) 1,771 3.6 -18.8°
Maximum altitude 20:19:15 17° 54° (NE) 1,764 3.6 -18.9°
Drops below altitude 10° 20:22:14 10° 15° (NNE) 2,185 4.5 -19.3°
Sets 20:25:13 0° 356° (N) 3,108 5.6 -19.7°
